period_start,C,m1,H,J0,J1,J2,J3,J4,J5,JA,JB,JC,JD,JJ,JK,JN,#
2015-10-20 00:04:37,0.04,0.49,0.00,23.42,27.77,30.65,14.60,47.71,1018.61,2034.01,3407.70,3132.17,3412.82,600.47,596.78,7.82,0000 0000 0000 0000 000000
2015-10-20 00:09:39,0.03,0.49,0.00,23.43,27.77,30.64,14.46,47.73,1018.58,2034.03,3406.83,3131.96,3412.06,599.70,596.14,7.87,0000 0000 0000 0000 000000
2015-10-20 00:14:40,0.06,0.50,0.00,23.46,27.77,30.63,14.50,47.72,1018.58,2034.03,3405.53,3131.11,3411.25,599.74,595.98,7.92,0000 0000 0000 0000 000000
2015-10-20 00:19:42,0.05,0.50,0.00,23.43,27.77,30.64,14.53,47.69,1018.58,2034.02,3404.49,3130.29,3410.46,600.02,596.31,7.98,0000 0000 0000 0000 000000
2015-10-20 00:24:43,0.09,0.50,0.00,23.41,27.77,30.66,14.46,47.62,1018.57,2034.01,3402.90,3128.83,3408.96,599.80,596.14,8.03,0000 0000 0000 0000 000000
2015-10-20 00:29:45,0.17,0.51,0.00,23.41,27.77,30.65,14.49,47.60,1018.57,2034.02,3400.15,3125.88,3405.94,599.95,596.28,8.08,0000 0000 0000 0000 000000
2015-10-20 00:34:46,0.22,0.52,0.00,23.42,27.77,30.66,14.49,47.70,1018.56,2034.03,3396.94,3122.26,3402.27,599.75,596.09,8.13,0000 0000 0000 0000 000000
2015-10-20 00:39:47,0.20,0.53,0.00,23.42,27.76,30.65,14.55,47.78,1018.53,2034.04,3393.52,3118.35,3398.26,600.03,596.25,8.18,0000 0000 0000 0000 000000
2015-10-20 00:44:49,0.19,0.54,0.00,23.42,27.76,30.63,14.50,47.71,1018.51,2034.03,3390.55,3115.07,3394.87,599.93,596.45,8.23,0000 0000 0000 0000 000000
2015-10-20 00:49:50,0.19,0.55,0.00,23.40,27.76,30.62,14.55,47.70,1018.46,2034.02,3387.03,3111.69,3391.35,600.14,596.49,8.28,0000 0000 0000 0000 000000
2015-10-20 00:54:51,0.15,0.56,0.00,23.39,27.75,30.63,14.59,47.74,1018.44,2034.04,3384.23,3109.11,3388.87,600.24,596.55,8.33,0000 0000 0000 0000 000000
2015-10-20 00:59:52,0.15,0.57,0.00,23.40,27.75,30.66,14.51,47.77,1018.44,2034.03,3381.32,3106.64,3386.27,599.71,596.08,8.38,0000 0000 0000 0000 000000
2015-10-20 01:04:54,0.21,0.58,0.00,23.41,27.75,30.64,14.56,47.71,1018.14,2034.02,3377.53,3103.60,3383.10,600.45,596.36,8.43,0000 0000 0000 0000 000000
2015-10-20 01:09:55,0.22,0.59,0.00,23.38,27.75,30.66,14.47,47.79,1018.09,2034.03,3372.71,3100.03,3379.42,599.83,595.92,8.48,0000 0000 0000 0000 000000
2015-10-20 01:14:56,0.12,0.60,0.00,23.39,27.75,30.65,14.57,47.77,1018.08,2034.06,3369.68,3097.70,3377.05,599.93,596.11,8.53,0000 0000 0000 0000 000000
2015-10-20 01:19:58,0.12,0.60,0.00,23.39,27.75,30.66,14.55,47.67,1018.08,2034.06,3367.40,3095.90,3375.10,600.00,596.13,8.58,0000 0000 0000 0000 000000
2015-10-20 01:24:59,0.08,0.61,0.00,23.37,27.75,30.65,14.62,47.72,1018.08,2034.04,3365.23,3094.22,3373.30,600.29,596.31,8.63,0000 0000 0000 0000 000000
2015-10-20 01:30:00,0.10,0.61,0.00,23.38,27.75,30.65,14.54,47.86,1018.03,2034.04,3363.30,3092.67,3371.67,599.90,596.02,8.68,0000 0000 0000 0000 000000
2015-10-20 01:35:02,0.11,0.62,0.00,23.40,27.75,30.63,14.54,47.81,1017.80,2034.05,3361.03,3091.04,3369.94,599.68,595.61,8.73,0000 0000 0000 0000 000000
2015-10-20 01:40:03,0.16,0.62,0.00,23.41,27.75,30.64,14.52,47.86,1017.70,2034.03,3357.39,3088.61,3367.42,600.02,595.95,8.78,0000 0000 0000 0000 000000
2015-10-20 01:45:05,0.18,0.63,0.00,23.41,27.75,30.64,14.45,47.77,1017.64,2034.03,3353.68,3086.12,3364.79,599.89,595.67,8.83,0000 0000 0000 0000 000000
2015-10-20 01:50:06,0.19,0.64,0.00,23.38,27.75,30.63,14.51,47.89,1017.63,2034.01,3349.46,3083.20,3361.76,599.81,595.67,8.88,0000 0000 0000 0000 000000
2015-10-20 01:55:07,0.18,0.65,0.00,23.39,27.75,30.63,14.52,47.83,1017.62,2034.03,3345.52,3080.39,3358.71,599.88,595.72,8.93,0000 0000 0000 0000 000000
2015-10-20 02:00:08,0.20,0.66,0.00,23.41,27.75,30.66,14.46,47.83,1017.61,2034.02,3341.48,3077.23,3355.46,600.13,595.96,8.98,0000 0000 0000 0000 000000
2015-10-20 02:05:10,0.26,0.67,0.00,23.41,27.75,30.64,14.49,47.88,1017.62,2034.03,3336.44,3073.40,3351.46,599.62,595.48,9.03,0000 0000 0000 0000 000000
2015-10-20 02:10:11,0.30,0.69,0.00,23.41,27.75,30.64,14.54,47.93,1017.62,2034.02,3330.70,3069.03,3346.79,599.95,595.76,9.08,0000 0000 0000 0000 000000
2015-10-20 02:15:12,0.30,0.70,0.00,23.39,27.75,30.64,14.56,47.88,1017.60,2034.02,3325.11,3063.65,3341.14,600.29,596.05,9.13,0000 0000 0000 0000 000000
2015-10-20 02:20:13,0.25,0.72,0.00,23.44,27.76,30.63,14.54,47.83,1017.60,2034.01,3320.55,3059.57,3336.88,600.20,595.86,9.18,0000 0000 0000 0000 000000
2015-10-20 02:25:14,0.25,0.73,0.00,23.46,27.77,30.64,14.47,47.78,1017.59,2034.00,3315.58,3055.56,3332.76,599.94,595.60,9.23,0000 0000 0000 0000 000000
2015-10-20 02:30:15,0.18,0.74,0.00,23.47,27.77,30.64,14.48,47.70,1017.58,2034.00,3311.67,3052.37,3329.41,599.88,595.56,9.28,0000 0000 0000 0000 000000
2015-10-20 02:35:16,0.25,0.75,0.00,23.49,27.77,30.64,14.53,47.69,1017.59,2034.00,3307.18,3048.81,3325.79,600.04,595.66,9.33,0000 0000 0000 0000 000000
2015-10-20 02:40:17,0.23,0.77,0.00,23.52,27.77,30.63,14.58,47.86,1017.59,2034.01,3302.04,3045.01,3321.84,600.14,595.73,9.38,0000 0000 0000 0000 000000
2015-10-20 02:45:19,0.17,0.78,0.00,23.54,27.77,30.64,14.54,47.75,1017.44,2034.00,3298.35,3042.14,3318.83,600.18,595.62,9.43,0000 0000 0000 0000 000000
2015-10-20 02:50:20,0.18,0.78,0.00,23.54,27.77,30.64,14.42,47.72,1017.30,2034.00,3294.69,3039.38,3315.97,599.85,595.29,9.48,0000 0000 0000 0000 000000
2015-10-20 02:55:21,0.28,0.80,0.00,23.55,27.78,30.63,14.48,47.60,1017.17,2034.00,3289.47,3034.97,3311.48,600.08,595.34,9.53,0000 0000 0000 0000 000000
2015-10-20 03:00:23,0.13,0.81,0.00,23.57,27.79,30.64,14.51,47.73,1017.12,2034.00,3286.40,3032.61,3308.86,599.81,595.00,9.58,0000 0000 0000 0000 000000
2015-10-20 03:05:24,0.08,0.81,0.00,23.59,27.80,30.65,14.43,47.74,1017.12,2034.00,3284.69,3031.25,3307.48,600.12,595.24,9.63,0000 0000 0000 0000 000000
2015-10-20 03:10:25,0.08,0.82,0.00,23.59,27.80,30.65,14.51,47.64,1017.15,2034.00,3283.14,3029.83,3306.06,599.93,595.15,9.68,0000 0000 0000 0000 000000
2015-10-20 03:15:27,0.05,0.82,0.00,23.62,27.80,30.64,14.52,47.73,1017.16,2034.00,3281.78,3028.92,3305.03,600.10,595.22,9.73,0000 0000 0000 0000 000000
2015-10-20 03:20:28,0.03,0.82,0.00,23.65,27.80,30.64,14.46,47.78,1017.15,2033.99,3281.15,3028.39,3304.77,599.76,594.86,9.78,0000 0000 0000 0000 000000
2015-10-20 03:25:29,0.01,0.82,0.00,23.66,27.80,30.66,14.48,47.76,1017.13,2033.99,3281.01,3028.14,3304.27,599.99,595.06,9.83,0000 0000 0000 0000 000000
2015-10-20 03:30:30,0.00,0.82,0.00,23.67,27.80,30.64,14.44,47.73,1017.13,2033.99,3281.00,3028.00,3304.01,600.13,595.06,9.88,0000 0000 0000 0000 000000
2015-10-20 03:35:31,0.00,0.82,0.00,23.70,27.82,30.64,14.44,47.86,1017.12,2033.99,3280.99,3028.00,3304.00,600.10,595.03,9.93,0000 0000 0000 0000 000000
2015-10-20 03:40:33,0.00,0.82,0.00,23.70,27.82,30.67,14.44,47.68,1017.12,2033.99,3280.95,3028.00,3303.99,599.99,594.87,9.98,0000 0000 0000 0000 000000
2015-10-20 03:45:34,0.02,0.82,0.00,23.71,27.82,30.67,14.43,47.87,1017.11,2033.99,3280.30,3027.98,3303.78,599.90,594.69,10.03,0000 0000 0000 0000 000000
2015-10-20 03:50:36,0.02,0.82,0.00,23.72,27.82,30.64,14.50,47.87,1017.11,2033.99,3280.04,3027.75,3303.22,599.99,594.85,10.08,0000 0000 0000 0000 000000
2015-10-20 03:55:37,0.01,0.83,0.00,23.75,27.82,30.64,14.47,47.81,1017.11,2033.99,3280.00,3027.19,3303.01,600.07,594.89,10.13,0000 0000 0000 0000 000000
2015-10-20 04:00:39,0.00,0.83,0.00,23.77,27.83,30.67,14.41,47.68,1017.12,2033.99,3280.00,3027.06,3303.00,599.75,594.52,10.18,0000 0000 0000 0000 000000
2015-10-20 04:05:40,0.01,0.83,0.00,23.77,27.85,30.68,14.48,47.67,1017.11,2033.99,3279.77,3027.02,3302.98,600.28,595.21,10.23,0000 0000 0000 0000 000000
2015-10-20 04:10:41,0.01,0.83,0.00,23.77,27.85,30.67,14.48,47.72,1017.11,2033.97,3279.04,3026.99,3302.54,600.16,594.82,10.28,0000 0000 0000 0000 000000
2015-10-20 04:15:43,0.01,0.83,0.00,23.80,27.85,30.66,14.43,47.77,1017.11,2033.99,3279.00,3026.99,3302.08,599.59,594.30,10.34,0000 0000 0000 0000 000000
2015-10-20 04:20:44,0.00,0.83,0.00,23.81,27.85,30.68,14.48,47.82,1017.11,2033.99,3278.99,3026.97,3302.02,600.30,595.05,10.39,0000 0000 0000 0000 000000
2015-10-20 04:25:45,0.00,0.83,0.00,23.83,27.85,30.66,14.46,47.80,1017.11,2033.98,3278.86,3026.89,3302.00,600.06,594.57,10.44,0000 0000 0000 0000 000000
2015-10-20 04:30:47,0.02,0.83,0.00,23.85,27.85,30.66,14.45,47.84,1017.11,2033.98,3278.53,3026.69,3301.98,599.75,594.37,10.49,0000 0000 0000 0000 000000
2015-10-20 04:35:48,0.01,0.83,0.00,23.86,27.86,30.67,14.51,47.89,1017.08,2033.98,3278.07,3026.28,3301.91,599.98,594.63,10.54,0000 0000 0000 0000 000000
2015-10-20 04:40:49,0.01,0.83,0.00,23.86,27.87,30.66,14.45,47.75,1016.79,2033.97,3278.01,3026.16,3301.55,599.91,594.42,10.59,0000 0000 0000 0000 000000
2015-10-20 04:45:50,0.01,0.83,0.00,23.87,27.87,30.67,14.50,47.78,1016.70,2033.97,3277.98,3026.01,3301.05,600.40,594.57,10.64,0000 0000 0000 0000 000000
2015-10-20 04:50:52,-0.00,0.83,0.00,23.90,27.87,30.66,14.46,47.86,1016.64,2033.92,3277.89,3026.00,3300.99,599.82,594.08,10.69,0000 0000 0000 0000 000000
2015-10-20 04:55:53,0.01,0.83,0.00,23.91,27.87,30.69,14.49,47.74,1016.64,2033.94,3277.51,3026.00,3300.97,600.05,594.29,10.74,0000 0000 0000 0000 000000
2015-10-20 05:00:54,0.00,0.83,0.00,23.92,27.87,30.69,14.41,47.73,1016.63,2033.85,3277.06,3025.99,3300.88,600.20,594.37,10.79,0000 0000 0000 0000 000000
2015-10-20 05:05:56,0.01,0.83,0.00,23.93,27.87,30.71,14.42,47.76,1016.62,2033.86,3277.00,3025.97,3300.40,600.11,594.28,10.84,0000 0000 0000 0000 000000
2015-10-20 05:10:57,0.01,0.83,0.00,23.93,27.87,30.72,14.44,47.81,1016.62,2033.89,3276.98,3025.90,3300.05,600.01,594.25,10.89,0000 0000 0000 0000 000000
2015-10-20 05:15:59,0.01,0.83,0.00,23.91,27.88,30.72,14.43,47.85,1016.62,2033.87,3276.65,3025.47,3300.01,599.96,594.24,10.94,0000 0000 0000 0000 000000
2015-10-20 05:21:00,0.01,0.83,0.00,23.89,27.88,30.70,14.45,47.78,1016.62,2033.85,3276.21,3025.26,3300.00,599.80,594.09,10.99,0000 0000 0000 0000 000000
2015-10-20 05:26:02,0.01,0.83,0.00,23.82,27.88,30.70,14.47,47.86,1016.62,2033.75,3276.01,3025.04,3299.96,599.83,594.29,11.04,0000 0000 0000 0000 000000
2015-10-20 05:31:03,0.01,0.83,0.00,23.80,27.88,30.72,14.47,47.95,1016.62,2033.77,3275.99,3025.00,3299.40,599.97,594.54,11.09,0000 0000 0000 0000 000000
2015-10-20 05:36:05,-0.01,0.83,0.00,23.83,27.89,30.72,14.57,47.96,1016.61,2033.64,3275.52,3025.00,3299.03,599.89,594.16,11.14,0000 0000 0000 0000 000000
2015-10-20 05:41:06,0.00,0.83,0.00,23.85,27.89,30.71,14.43,47.84,1016.59,2033.64,3275.05,3024.96,3298.99,600.00,594.32,11.19,0000 0000 0000 0000 000000
2015-10-20 05:46:07,0.01,0.83,0.00,23.86,27.90,30.70,14.50,47.85,1016.61,2033.62,3275.00,3024.90,3298.98,599.99,594.31,11.24,0000 0000 0000 0000 000000
2015-10-20 05:51:08,-0.01,0.83,0.00,23.83,27.90,30.69,14.48,47.84,1016.48,2033.45,3275.00,3024.69,3298.76,600.19,594.32,11.29,0000 0000 0000 0000 000000
2015-10-20 05:56:09,0.01,0.83,0.00,23.83,27.90,30.72,14.50,47.83,1016.38,2033.46,3274.98,3024.54,3298.44,600.29,594.47,11.34,0000 0000 0000 0000 000000
2015-10-20 06:01:11,0.01,0.84,0.00,23.87,27.90,30.71,14.40,47.72,1016.26,2033.38,3274.91,3024.16,3298.07,599.87,594.01,11.39,0000 0000 0000 0000 000000
2015-10-20 06:06:12,-0.00,0.84,0.00,23.82,27.90,30.72,14.44,47.78,1016.14,2033.33,3274.83,3024.11,3298.02,599.93,594.11,11.44,0000 0000 0000 0000 000000
2015-10-20 06:11:13,0.00,0.83,0.00,23.78,27.90,30.75,14.46,47.86,1016.13,2033.22,3274.41,3024.04,3298.00,599.97,594.10,11.49,0000 0000 0000 0000 000000
2015-10-20 06:16:15,0.01,0.84,0.00,23.80,27.90,30.74,14.43,47.79,1016.13,2033.24,3274.15,3024.03,3298.00,600.23,594.38,11.54,0000 0000 0000 0000 000000
2015-10-20 06:21:16,-0.01,0.84,0.00,23.81,27.91,30.76,14.57,47.88,1016.13,2033.19,3274.02,3024.00,3297.83,600.28,594.37,11.59,0000 0000 0000 0000 000000
2015-10-20 06:26:17,0.04,0.84,0.00,23.89,27.92,30.76,14.42,47.78,1016.13,2033.06,3273.21,3023.31,3297.03,599.93,593.93,11.64,0000 0000 0000 0000 000000
2015-10-20 06:31:18,0.01,0.84,0.00,23.88,27.92,30.78,14.51,47.77,1016.12,2033.06,3272.98,3023.00,3296.68,600.05,593.94,11.69,0000 0000 0000 0000 000000
2015-10-20 06:36:20,0.01,0.84,0.00,23.90,27.92,30.78,14.42,47.70,1015.97,2033.02,3272.60,3022.89,3296.05,599.62,593.54,11.74,0000 0000 0000 0000 000000
2015-10-20 06:41:21,0.03,0.84,0.00,23.94,27.93,30.76,14.49,47.70,1015.85,2033.01,3272.05,3022.16,3296.00,600.36,593.93,11.79,0000 0000 0000 0000 000000
2015-10-20 06:46:22,0.03,0.84,0.00,23.95,27.95,30.77,14.48,47.74,1015.89,2033.01,3271.29,3021.98,3295.34,600.27,593.89,11.84,0000 0000 0000 0000 000000
2015-10-20 06:51:24,0.02,0.84,0.00,23.97,27.95,30.76,14.43,47.72,1015.78,2033.00,3270.99,3021.48,3295.01,599.90,593.51,11.89,0000 0000 0000 0000 000000
2015-10-20 06:56:25,0.03,0.84,0.00,23.94,27.95,30.77,14.50,47.73,1015.70,2033.01,3270.27,3020.96,3294.49,599.89,593.51,11.94,0000 0000 0000 0000 000000
2015-10-20 07:01:27,0.07,0.85,0.00,23.92,27.95,30.78,14.42,47.80,1015.65,2033.01,3269.36,3019.89,3293.37,600.19,593.68,11.99,0000 0000 0000 0000 000000
2015-10-20 07:06:28,0.05,0.85,0.00,23.92,27.95,30.77,14.48,47.71,1015.64,2033.00,3268.39,3019.02,3292.30,600.11,593.67,12.04,0000 0000 0000 0000 000000
2015-10-20 07:11:30,0.05,0.85,0.00,23.91,27.95,30.79,14.51,47.86,1015.64,2033.02,3267.72,3018.33,3291.55,600.44,593.93,12.09,0000 0000 0000 0000 000000
2015-10-20 07:16:31,0.06,0.86,0.00,23.92,27.94,30.78,14.47,47.76,1015.64,2033.02,3266.82,3017.14,3290.28,599.99,593.50,12.14,0000 0000 0000 0000 000000
2015-10-20 07:21:32,0.07,0.86,0.00,23.89,27.92,30.79,14.45,47.82,1015.64,2033.03,3265.59,3016.04,3289.10,600.03,593.65,12.19,0000 0000 0000 0000 000000
2015-10-20 07:26:34,0.04,0.86,0.00,23.87,27.92,30.79,14.45,47.80,1015.63,2033.02,3264.99,3015.16,3288.25,600.21,593.96,12.24,0000 0000 0000 0000 000000
2015-10-20 07:31:35,0.01,0.86,0.00,23.86,27.92,30.77,14.45,47.77,1015.61,2033.02,3264.39,3015.00,3288.00,600.10,593.80,12.29,0000 0000 0000 0000 000000
2015-10-20 07:36:36,0.01,0.86,0.00,23.86,27.92,30.77,14.41,47.79,1015.36,2033.05,3264.04,3014.93,3287.95,599.81,593.40,12.34,0000 0000 0000 0000 000000
2015-10-20 07:41:37,0.03,0.86,0.00,23.85,27.91,30.77,14.43,47.78,1015.18,2033.07,3263.98,3014.51,3287.56,599.81,593.25,12.39,0000 0000 0000 0000 000000
2015-10-20 07:46:39,0.05,0.87,0.00,23.84,27.90,30.77,14.45,47.75,1015.16,2033.08,3263.18,3013.69,3286.64,599.84,593.36,12.44,0000 0000 0000 0000 000000
2015-10-20 07:51:40,0.04,0.87,0.00,23.81,27.90,30.78,14.43,47.87,1015.16,2033.19,3262.67,3013.03,3286.01,600.05,593.61,12.49,0000 0000 0000 0000 000000
2015-10-20 07:56:41,0.01,0.87,0.00,23.79,27.90,30.76,14.50,47.74,1015.15,2033.26,3262.03,3012.90,3285.84,600.34,593.90,12.54,0000 0000 0000 0000 000000
2015-10-20 08:01:42,0.06,0.87,0.00,23.79,27.89,30.75,14.46,47.76,1015.14,2033.32,3261.35,3012.11,3285.03,600.17,593.76,12.59,0000 0000 0000 0000 000000
2015-10-20 08:06:43,0.08,0.88,0.00,23.75,27.87,30.73,14.39,47.77,1015.05,2033.51,3259.45,3011.12,3284.02,599.91,593.61,12.64,0000 0000 0000 0000 000000
2015-10-20 08:11:44,0.08,0.88,0.00,23.75,27.87,30.74,14.37,47.73,1014.96,2033.63,3258.19,3010.28,3283.10,599.73,593.22,12.70,0000 0000 0000 0000 000000
2015-10-20 08:16:45,0.01,0.88,0.00,23.75,27.87,30.74,14.43,47.88,1014.76,2033.71,3258.00,3010.01,3283.00,599.93,593.47,12.75,0000 0000 0000 0000 000000
2015-10-20 08:21:47,0.03,0.88,0.00,23.73,27.87,30.71,14.46,47.81,1014.67,2033.74,3257.57,3010.00,3282.69,600.08,593.51,12.80,0000 0000 0000 0000 000000
2015-10-20 08:26:48,0.03,0.89,0.00,23.72,27.85,30.71,14.46,47.77,1014.66,2033.85,3256.99,3009.64,3282.05,599.91,593.36,12.85,0000 0000 0000 0000 000000
2015-10-20 08:31:49,0.01,0.89,0.00,23.72,27.85,30.71,14.45,47.75,1014.66,2033.78,3256.22,3009.02,3281.95,599.96,593.31,12.90,0000 0000 0000 0000 000000
2015-10-20 08:36:50,0.03,0.89,0.00,23.71,27.85,30.73,14.47,47.86,1014.66,2033.91,3255.93,3008.99,3281.42,600.29,593.71,12.95,0000 0000 0000 0000 000000
2015-10-20 08:41:52,0.04,0.89,0.00,23.70,27.85,30.68,14.43,47.79,1014.61,2033.94,3255.13,3008.56,3281.01,599.76,593.30,13.00,0000 0000 0000 0000 000000
2015-10-20 08:46:53,0.02,0.89,0.00,23.69,27.85,30.71,14.44,47.78,1014.45,2033.95,3254.47,3008.02,3280.74,599.69,593.07,13.05,0000 0000 0000 0000 000000
2015-10-20 08:51:54,0.02,0.89,0.00,23.69,27.84,30.70,14.47,47.73,1014.23,2033.96,3253.88,3007.88,3280.08,600.09,593.37,13.10,0000 0000 0000 0000 000000
2015-10-20 08:56:56,0.07,0.90,0.00,23.64,27.82,30.69,14.46,47.83,1014.19,2033.98,3252.70,3006.92,3279.28,599.90,593.24,13.15,0000 0000 0000 0000 000000
2015-10-20 09:01:57,0.16,0.90,0.00,23.60,27.82,30.68,14.46,47.81,1014.19,2033.96,3249.97,3005.01,3277.13,600.12,593.70,13.20,0000 0000 0000 0000 000000
2015-10-20 09:06:58,0.13,0.91,0.00,23.60,27.82,30.69,14.45,47.68,1014.20,2033.98,3246.99,3002.83,3274.80,599.98,593.40,13.25,0000 0000 0000 0000 000000
2015-10-20 09:12:00,0.13,0.92,0.00,23.59,27.82,30.68,14.47,47.84,1014.18,2033.99,3244.28,3001.03,3272.90,599.73,593.18,13.30,0000 0000 0000 0000 000000
2015-10-20 09:17:01,0.18,0.92,0.00,23.58,27.82,30.69,14.46,47.83,1014.18,2033.99,3240.55,2998.52,3270.23,600.15,593.56,13.35,0000 0000 0000 0000 000000
2015-10-20 09:22:03,0.22,0.93,0.00,23.58,27.82,30.69,14.44,47.90,1014.18,2033.97,3235.89,2995.31,3266.89,600.08,593.52,13.40,0000 0000 0000 0000 000000
2015-10-20 09:27:04,0.23,0.95,0.00,23.57,27.81,30.68,14.59,47.97,1014.17,2033.98,3230.98,2991.96,3263.44,600.42,593.74,13.45,0000 0000 0000 0000 000000
2015-10-20 09:32:05,0.25,0.96,0.00,23.57,27.80,30.66,14.38,47.87,1014.16,2033.97,3225.90,2988.37,3259.79,599.94,593.39,13.50,0000 0000 0000 0000 000000
2015-10-20 09:37:07,0.29,0.97,0.00,23.56,27.80,30.65,14.45,47.90,1014.12,2033.98,3220.02,2984.29,3255.49,600.10,593.55,13.55,0000 0000 0000 0000 000000
2015-10-20 09:42:08,0.57,1.00,0.00,23.56,27.80,30.66,14.45,47.93,1014.06,2033.99,3209.60,2976.57,3247.44,599.64,593.18,13.60,0000 0000 0000 0000 000000
2015-10-20 09:47:09,0.40,1.02,0.00,23.56,27.80,30.66,14.46,47.88,1013.89,2033.97,3201.66,2970.26,3240.89,600.24,593.51,13.65,0000 0000 0000 0000 000000
2015-10-20 09:52:10,0.48,1.04,0.00,23.57,27.80,30.65,14.39,47.88,1013.74,2033.98,3192.65,2963.35,3233.62,599.99,593.27,13.70,0000 0000 0000 0000 000000
2015-10-20 09:57:12,0.59,1.07,0.00,23.55,27.80,30.65,14.47,47.81,1013.71,2033.98,3181.83,2955.10,3224.98,599.88,593.12,13.75,0000 0000 0000 0000 000000
2015-10-20 10:02:13,0.47,1.10,0.00,23.53,27.80,30.66,14.46,47.92,1013.70,2033.98,3171.81,2947.52,3217.05,600.12,593.31,13.80,0000 0000 0000 0000 000000
2015-10-20 10:07:15,0.39,1.12,0.00,23.53,27.80,30.66,14.49,47.91,1013.69,2033.98,3164.21,2941.75,3210.93,600.07,593.37,13.85,0000 0000 0000 0000 000000
2015-10-20 10:12:16,0.48,1.14,0.00,23.51,27.80,30.66,14.42,47.95,1013.69,2033.98,3155.66,2935.22,3204.09,600.23,593.51,13.90,0000 0000 0000 0000 000000
2015-10-20 10:17:17,0.49,1.16,0.00,23.52,27.80,30.66,14.42,47.97,1013.68,2033.97,3146.24,2928.05,3196.70,599.88,593.12,13.95,0000 0000 0000 0000 000000
2015-10-20 10:22:18,0.63,1.20,0.00,23.52,27.79,30.66,14.47,47.94,1013.68,2033.97,3135.09,2919.52,3187.80,600.46,593.68,14.00,0000 0000 0000 0000 000000
2015-10-20 10:27:20,0.59,1.23,0.13,23.50,27.78,30.66,14.54,48.02,1013.57,2033.97,3123.68,2910.73,3178.56,600.31,593.64,14.05,0000 0000 0000 0000 000000
2015-10-20 10:32:21,0.50,1.25,1.00,23.49,27.77,30.66,14.46,47.96,1013.30,2033.98,3114.05,2903.32,3170.84,599.96,592.96,14.10,0000 0000 0000 0000 000000
2015-10-20 10:37:22,0.51,1.28,1.00,23.48,27.77,30.67,14.54,48.08,1013.21,2033.98,3104.51,2896.15,3163.31,600.43,593.50,14.15,0000 0000 0000 0000 000000
2015-10-20 10:42:24,0.53,1.30,1.00,23.50,27.77,30.64,14.46,48.08,1013.20,2033.97,3094.76,2888.83,3155.67,600.07,593.11,14.20,0000 0000 0000 0000 000000
2015-10-20 10:47:25,0.51,1.33,1.00,23.47,27.77,30.65,14.48,48.13,1013.20,2033.97,3085.14,2881.51,3147.95,600.11,593.16,14.25,0000 0000 0000 0000 000000
2015-10-20 10:52:26,0.46,1.36,1.00,23.45,27.77,30.65,14.43,48.13,1013.11,2033.98,3076.40,2874.85,3140.87,599.83,592.92,14.30,0000 0000 0000 0000 000000
2015-10-20 10:57:28,0.29,1.38,0.83,23.43,27.77,30.66,14.44,48.07,1012.94,2033.99,3070.20,2870.14,3135.97,599.88,592.91,14.35,0000 0000 0000 0000 000000
2015-10-20 11:02:29,0.23,1.39,0.00,23.41,27.77,30.65,14.45,48.05,1012.82,2033.97,3065.69,2866.87,3132.57,599.92,592.88,14.40,0000 0000 0000 0000 000000
2015-10-20 11:07:30,0.06,1.39,0.00,23.42,27.77,30.64,14.49,48.13,1012.75,2033.98,3063.90,2865.47,3131.06,600.09,593.17,14.45,0000 0000 0000 0000 000000
2015-10-20 11:12:31,0.03,1.40,0.00,23.40,27.77,30.65,14.49,48.05,1012.76,2033.98,3063.06,2865.00,3130.50,600.10,593.18,14.50,0000 0000 0000 0000 000000
2015-10-20 11:17:33,0.04,1.40,0.00,23.39,27.77,30.66,14.44,48.02,1012.73,2033.97,3062.32,2864.37,3129.97,599.85,592.83,14.55,0000 0000 0000 0000 000000
2015-10-20 11:22:34,0.02,1.40,0.00,23.40,27.77,30.65,14.35,48.12,1012.71,2033.98,3061.82,2863.99,3129.16,599.79,592.82,14.60,0000 0000 0000 0000 000000
2015-10-20 11:27:36,0.03,1.40,0.00,23.40,27.77,30.66,14.56,48.13,1012.71,2033.98,3061.05,2863.71,3128.78,600.18,593.07,14.65,0000 0000 0000 0000 000000
2015-10-20 11:32:37,0.04,1.40,0.00,23.38,27.77,30.67,14.45,48.15,1012.71,2033.99,3060.35,2863.04,3128.04,599.97,593.03,14.70,0000 0000 0000 0000 000000
2015-10-20 11:37:38,0.01,1.40,0.00,23.37,27.77,30.64,14.37,48.00,1012.71,2033.99,3059.97,2862.98,3127.79,599.99,593.02,14.75,0000 0000 0000 0000 000000
2015-10-20 11:42:40,0.04,1.41,0.00,23.35,27.77,30.66,14.43,48.13,1012.63,2033.99,3059.25,2862.60,3127.08,600.05,593.05,14.80,0000 0000 0000 0000 000000
2015-10-20 11:47:41,0.01,1.41,0.00,23.35,27.77,30.67,14.49,48.11,1012.41,2033.99,3058.96,2862.05,3126.90,600.12,592.89,14.86,0000 0000 0000 0000 000000
2015-10-20 11:52:43,0.03,1.41,0.00,23.34,27.77,30.65,14.47,48.16,1012.23,2033.99,3058.23,2861.97,3126.17,600.26,593.04,14.91,0000 0000 0000 0000 000000
2015-10-20 11:57:44,0.05,1.41,0.00,23.33,27.77,30.65,14.50,48.16,1012.22,2033.99,3057.69,2861.27,3125.65,600.01,592.67,14.96,0000 0000 0000 0000 000000
2015-10-20 12:02:45,0.04,1.41,0.00,23.35,27.77,30.65,14.45,48.18,1012.22,2033.98,3056.75,2860.73,3124.81,599.99,592.75,15.01,0000 0000 0000 0000 000000
2015-10-20 12:07:47,0.07,1.42,0.00,23.33,27.77,30.67,14.50,48.18,1012.16,2033.99,3055.50,2859.77,3123.73,599.97,592.67,15.06,0000 0000 0000 0000 000000
2015-10-20 12:12:48,0.13,1.42,0.00,23.33,27.77,30.66,14.40,48.08,1012.05,2033.98,3053.08,2858.07,3121.88,599.85,592.60,15.11,0000 0000 0000 0000 000000
2015-10-20 12:17:49,0.17,1.43,0.00,23.34,27.77,30.66,14.43,47.88,1011.79,2033.99,3050.40,2856.08,3119.78,599.78,592.24,15.16,0000 0000 0000 0000 000000
2015-10-20 12:22:51,0.26,1.44,0.00,23.33,27.77,30.66,14.39,47.87,1011.75,2033.99,3045.65,2852.67,3116.09,599.70,592.26,15.21,0000 0000 0000 0000 000000
2015-10-20 12:27:52,0.23,1.45,0.00,23.29,27.77,30.67,14.51,47.81,1011.74,2033.99,3041.19,2849.44,3112.66,600.23,592.77,15.26,0000 0000 0000 0000 000000
2015-10-20 12:32:53,0.23,1.47,0.00,23.27,27.77,30.67,14.47,47.73,1011.73,2033.99,3036.57,2846.19,3109.19,600.01,592.64,15.31,0000 0000 0000 0000 000000
2015-10-20 12:37:55,0.25,1.48,0.00,23.29,27.77,30.66,14.41,47.80,1011.64,2033.99,3031.93,2842.89,3105.69,599.85,592.34,15.36,0000 0000 0000 0000 000000
2015-10-20 12:42:56,0.17,1.49,0.00,23.31,27.77,30.66,14.48,47.80,1011.49,2033.98,3028.19,2840.29,3102.87,599.81,592.13,15.41,0000 0000 0000 0000 000000
2015-10-20 12:47:57,0.11,1.50,0.00,23.32,27.77,30.66,14.43,47.80,1011.29,2033.99,3025.78,2838.56,3101.05,599.72,592.00,15.46,0000 0000 0000 0000 000000
2015-10-20 12:52:59,0.03,1.50,0.00,23.29,27.77,30.67,14.49,47.76,1011.25,2033.98,3024.78,2837.95,3100.11,600.07,592.37,15.51,0000 0000 0000 0000 000000
2015-10-20 12:58:00,0.06,1.50,0.00,23.27,27.77,30.67,14.44,47.88,1011.25,2033.98,3023.75,2837.14,3099.36,600.08,592.55,15.56,0000 0000 0000 0000 000000